Content
SEND FEEDBACK

Daily
Averages
Monthly
Summary
United States of America

MANGILAO, GUAM


Home > North America > United States > Guam
Elevation: 60 feet     Latitude: 13 27N     Longitude: 144 49E

WEATHER
 
SELECT A DAY
Number of Records: 341,794;   Date Range: 1/1/95 - 7/23/14
 
SHARE

PRINT THIS DATA

[ ← Previous Day ]
WEATHER ALMANAC - FEBRUARY 4, 2013
[ Next Day → ]
[ °C ]   °F
Weather ElementAverageHighLow
Temperature79.1 °F84.4 °F (1:55 pm)76.3 °F (1:55 am)
Dewpoint70.9 °F72 °F (10:55 pm)68.7 °F (12:55 pm)
Humidity76.2 %83 % (1:55 am)60 % (12:55 pm)
Barometer29.95 in30.00 in (8:55 am)29.90 in (3:52 pm)
Wind Speed16.4 mph23 mph (11:55 am)
Wind Gust27.6 mph (2:24 am)
Weather ElementAverage
Visibility10 mi
Wind DirectionENE (67.3 °)

Weather ElementTotal
Precipitation---
Cooling Degree Days15.4 (Base 65)
Growing Degree Days30.4 (Base 50)
Averaged from 45 records on February 4, 2013
WEATHER CONDITIONS BREAKOUT
WIND DIRECTION BREAKOUT
WEATHER BY HOUR - FEBRUARY 4, 2013
[ °C ]   °F
Local TimeTemperatureDewpointHumidityBarometerVisibilityWind DirectionWind SpeedGust SpeedPrecipitationEventsConditions
1:55 AM76.3 °F70.7 °F83 %29.95 in10.0 miENE (60°)16.1 mphClear
2:24 AM77.0 °F71.6 °F83 %29.94 in10.0 miENE (70°)20.7 mph27.6 mphMostly Cloudy
2:32 AM77.0 °F71.6 °F83 %29.94 in10.0 miENE (70°)16.1 mph27.6 mphMostly Cloudy
2:55 AM76.3 °F70.7 °F83 %29.94 in10.0 miENE (70°)18.4 mphPartly Cloudy
3:55 AM76.5 °F71.1 °F83 %29.93 in10.0 miENE (70°)16.1 mphMostly Cloudy
4:20 AM77.0 °F69.8 °F78 %29.92 in10.0 miENE (60°)18.4 mphMostly Cloudy
4:24 AM77.0 °F69.8 °F78 %29.93 in10.0 miENE (60°)16.1 mphMostly Cloudy
4:55 AM76.8 °F70.3 °F80 %29.93 in10.0 miENE (60°)17.3 mphScattered Clouds
5:55 AM76.5 °F70.3 °F81 %29.94 in10.0 miENE (60°)17.3 mphPartly Cloudy
6:55 AM76.5 °F70.9 °F83 %29.96 in10.0 miENE (70°)16.1 mphMostly Cloudy
7:55 AM78.1 °F69.3 °F74 %29.98 in10.0 miENE (70°)17.3 mphScattered Clouds
8:55 AM79.9 °F69.8 °F71 %30.00 in10.0 miENE (60°)17.3 mph25.3 mphScattered Clouds
9:11 AM78.8 °F71.6 °F78 %30.00 in10.0 miENE (70°)17.3 mphMostly Cloudy
9:20 AM80.6 °F69.8 °F70 %30.00 in10.0 miEast (80°)20.7 mph26.5 mphScattered Clouds
9:39 AM80.6 °F71.6 °F74 %30.00 in10.0 miEast (80°)18.4 mphMostly Cloudy
9:41 AM80.6 °F71.6 °F74 %30.00 in10.0 miEast (80°)21.9 mphScattered Clouds
9:55 AM81.3 °F70.2 °F69 %30.00 in10.0 miENE (70°)21.9 mphScattered Clouds
10:55 AM81.9 °F70.7 °F69 %29.99 in10.0 miEast (80°)19.6 mphMostly Cloudy
10:58 AM82.4 °F71.6 °F70 %29.99 in10.0 miENE (60°)21.9 mph26.5 mphScattered Clouds
11:55 AM83.5 °F70.7 °F65 %29.97 in10.0 miEast (80°)23.0 mphPartly Cloudy
12:55 PM84.0 °F68.7 °F60 %29.95 in10.0 miENE (60°)18.4 mphPartly Cloudy
1:55 PM84.4 °F71.4 °F65 %29.93 in10.0 miEast (80°)17.3 mph23.0 mphScattered Clouds
2:00 PM84.2 °F71.6 °F66 %29.93 in10.0 miENE (70°)15.0 mph23.0 mphMostly Cloudy
2:21 PM84.2 °F71.6 °F66 %29.91 in10.0 miENE (70°)17.3 mph25.3 mphScattered Clouds
2:55 PM81.7 °F69.8 °F67 %29.91 in10.0 miENE (60°)17.3 mphScattered Clouds
3:52 PM82.4 °F69.8 °F66 %29.90 in10.0 miNE (50°)19.6 mphMostly Cloudy
3:55 PM82.2 °F70.2 °F67 %29.90 in10.0 miENE (60°)18.4 mphMostly Cloudy
4:01 PM82.4 °F71.6 °F70 %29.90 in10.0 miENE (60°)17.3 mphScattered Clouds
4:03 PM80.6 °F71.6 °F74 %29.90 in10.0 miNE (50°)18.4 mphMostly Cloudy
4:32 PM78.8 °F71.6 °F78 %29.90 in10.0 miENE (60°)17.3 mphScattered Clouds
4:55 PM80.1 °F71.2 °F74 %29.90 in10.0 miENE (60°)15.0 mphClear
5:55 PM78.8 °F70.5 °F76 %29.91 in10.0 miENE (70°)16.1 mphScattered Clouds
6:55 PM77.7 °F71.2 °F80 %29.93 in10.0 miNE (50°)12.7 mphScattered Clouds
7:17 PM77.0 °F71.6 °F83 %29.93 in10.0 miNE (50°)11.5 mphMostly Cloudy
7:19 PM77.0 °F71.6 °F83 %29.93 in10.0 miNE (50°)12.7 mphScattered Clouds
7:21 PM77.0 °F71.6 °F83 %29.94 in10.0 miNE (50°)11.5 mphMostly Cloudy
7:23 PM77.0 °F71.6 °F83 %29.94 in10.0 miENE (60°)12.7 mphScattered Clouds
8:55 PM76.5 °F70.2 °F81 %29.96 in10.0 miENE (70°)11.5 mph0.00 inScattered Clouds
9:55 PM77.0 °F70.9 °F81 %29.97 in10.0 miEast (80°)10.4 mphScattered Clouds
10:25 PM77.0 °F71.6 °F83 %29.97 in10.0 miENE (70°)11.5 mphMostly Cloudy
10:31 PM77.0 °F71.6 °F83 %29.97 in10.0 miEast (80°)12.7 mphScattered Clouds
10:55 PM77.5 °F72.0 °F83 %29.97 in10.0 miEast (90°)12.7 mphScattered Clouds
10:57 PM77.0 °F71.6 °F83 %29.97 in10.0 miEast (90°)13.8 mphMostly Cloudy
11:00 PM77.0 °F71.6 °F83 %29.97 in10.0 miEast (80°)12.7 mphScattered Clouds
11:55 PM77.2 °F71.1 °F81 %29.97 in10.0 miEast (80°)12.7 mphPartly Cloudy
Hourly data recorded from PGUA, located miles away from Mangilao, Guam







STORIES FROM OUR PARTNERS